Tracking 18957 objects as of 22-Jan-2018
HD Live streaming from Space Station
objects crossing your sky now

ICECUBE

Track ICECUBE now!
10-day predictions
ICECUBE is classified as:


NORAD ID: 42705
Int'l Code: 1998-067LN
Perigee: 373.2 km
Apogee: 376.9 km
Inclination: 51.6 °
Period: 91.9 minutes
Semi major axis: 6746 km
RCS: Unknown
Launch date: November 20, 1998
Source: United States (US)
Launch site: TYURATAM MISSILE AND SPACE COMPLEX (TTMTR)
Uplink (MHz):
Downlink (MHz): 43*.xxx
Beacon (MHz):
Mode:
Call sign:
Status:

aabbcc
Your satellite tracking list
Your tracking list is empty




NASA's NSSDC Master Catalog

Two Line Element Set (TLE):
1 42705U 98067LN  18021.45034245  .00030742  00000-0  28895-3 0  9998
2 42705  51.6420  19.5996 0002711  20.7375 339.3731 15.66856079 39006
Source of the keplerian elements: AFSPC